Time,TemperatureF,DewpointF,PressureIn,WindDirection,WindDirectionDegrees,WindSpeedMPH,WindSpeedGustMPH,Humidity,HourlyPrecipIn,Conditions,Clouds,dailyrainin,SoftwareType,DateUTC
2013-11-06 00:02:00,43.9,36.0,28.78,East,82,0.0,-999.0,74,-99.99,,,0.00,weatherlink.com 1.10,2013-11-06 05:02:00,
2013-11-06 02:29:00,43.6,38.0,28.76,ENE,78,0.0,-999.0,82,-99.99,,,0.00,weatherlink.com 1.10,2013-11-06 07:29:00,
2013-11-06 02:47:00,42.4,37.0,28.82,ENE,78,0.0,-999.0,82,-99.99,,,0.00,weatherlink.com 1.10,2013-11-06 07:47:00,
2013-11-06 03:02:00,40.5,36.0,28.83,ENE,78,0.0,-999.0,84,-99.99,,,0.00,weatherlink.com 1.10,2013-11-06 08:02:00,
2013-11-06 03:17:00,39.1,36.0,28.83,ENE,78,0.0,-999.0,87,-99.99,,,0.00,weatherlink.com 1.10,2013-11-06 08:17:00,
2013-11-06 03:32:00,39.7,37.0,28.82,ENE,78,0.0,-999.0,90,-99.99,,,0.00,weatherlink.com 1.10,2013-11-06 08:32:00,
2013-11-06 03:47:00,40.3,37.0,28.83,ENE,78,0.0,-999.0,89,-99.99,,,0.00,weatherlink.com 1.10,2013-11-06 08:47:00,
2013-11-06 04:02:00,40.1,37.0,28.82,ENE,78,0.0,-999.0,89,-99.99,,,0.00,weatherlink.com 1.10,2013-11-06 09:02:00,
2013-11-06 04:17:00,39.5,37.0,28.83,ENE,78,0.0,-999.0,89,-99.99,,,0.00,weatherlink.com 1.10,2013-11-06 09:17:00,
2013-11-06 04:32:00,39.1,37.0,28.80,ENE,78,0.0,-999.0,92,-99.99,,,0.00,weatherlink.com 1.10,2013-11-06 09:32:00,
2013-11-06 04:47:00,40.1,38.0,28.80,ENE,78,0.0,-999.0,91,-99.99,,,0.00,weatherlink.com 1.10,2013-11-06 09:47:00,
2013-11-06 05:02:00,41.0,39.0,28.87,ENE,78,0.0,-999.0,91,-99.99,,,0.00,weatherlink.com 1.10,2013-11-06 10:02:00,
2013-11-06 05:17:00,40.8,38.0,28.86,ENE,78,0.0,-999.0,90,-99.99,,,0.00,weatherlink.com 1.10,2013-11-06 10:17:00,
2013-11-06 05:32:00,39.6,37.0,28.82,ENE,78,0.0,-999.0,91,-99.99,,,0.00,weatherlink.com 1.10,2013-11-06 10:32:00,
2013-11-06 05:47:00,38.8,37.0,28.83,ENE,78,0.0,-999.0,92,-99.99,,,0.00,weatherlink.com 1.10,2013-11-06 10:47:00,
2013-11-06 06:02:00,39.0,38.0,28.78,ENE,78,0.0,-999.0,94,-99.99,,,0.00,weatherlink.com 1.10,2013-11-06 11:02:00,
2013-11-06 06:17:00,38.2,36.0,28.78,ENE,78,1.0,-999.0,93,-99.99,,,0.00,weatherlink.com 1.10,2013-11-06 11:17:00,
2013-11-06 06:32:00,37.6,36.0,28.79,ENE,76,0.0,-999.0,94,-99.99,,,0.00,weatherlink.com 1.10,2013-11-06 11:32:00,
2013-11-06 06:47:00,39.9,39.0,28.84,ENE,75,0.0,-999.0,96,-99.99,,,0.00,weatherlink.com 1.10,2013-11-06 11:47:00,
2013-11-06 07:02:00,41.7,41.0,28.83,ENE,75,0.0,-999.0,96,-99.99,,,0.00,weatherlink.com 1.10,2013-11-06 12:02:00,
2013-11-06 07:17:00,42.3,41.0,28.83,ENE,76,0.0,-999.0,95,-99.99,,,0.00,weatherlink.com 1.10,2013-11-06 12:17:00,
2013-11-06 07:32:00,42.8,42.0,28.79,ENE,75,0.0,-999.0,95,-99.99,,,0.00,weatherlink.com 1.10,2013-11-06 12:32:00,
2013-11-06 07:47:00,43.6,42.0,28.82,ENE,76,0.0,-999.0,95,-99.99,,,0.00,weatherlink.com 1.10,2013-11-06 12:47:00,
2013-11-06 08:02:00,44.4,43.0,28.80,ENE,76,0.0,-999.0,95,-99.99,,,0.00,weatherlink.com 1.10,2013-11-06 13:02:00,
2013-11-06 08:17:00,45.6,44.0,28.81,ENE,73,1.0,-999.0,93,-99.99,,,0.00,weatherlink.com 1.10,2013-11-06 13:17:00,
2013-11-06 08:32:00,46.8,44.0,28.82,West,265,2.0,-999.0,91,-99.99,,,0.00,weatherlink.com 1.10,2013-11-06 13:32:00,
2013-11-06 08:47:00,48.6,46.0,28.83,West,265,0.0,-999.0,89,-99.99,,,0.00,weatherlink.com 1.10,2013-11-06 13:47:00,
2013-11-06 09:03:00,51.2,48.0,28.81,West,265,0.0,-999.0,87,-99.99,,,0.00,weatherlink.com 1.10,2013-11-06 14:03:00,
2013-11-06 09:18:00,54.4,50.0,28.82,West,265,0.0,-999.0,84,-99.99,,,0.00,weatherlink.com 1.10,2013-11-06 14:18:00,
2013-11-06 09:33:00,56.9,51.0,28.80,West,265,0.0,-999.0,80,-99.99,,,0.00,weatherlink.com 1.10,2013-11-06 14:33:00,
2013-11-06 09:48:00,59.0,51.0,28.79,West,265,1.0,-999.0,76,-99.99,,,0.00,weatherlink.com 1.10,2013-11-06 14:48:00,
2013-11-06 10:03:00,60.7,52.0,28.75,West,265,1.0,-999.0,73,-99.99,,,0.00,weatherlink.com 1.10,2013-11-06 15:03:00,
2013-11-06 10:18:00,62.7,54.0,28.78,WSW,240,1.0,-999.0,73,-99.99,,,0.00,weatherlink.com 1.10,2013-11-06 15:18:00,
2013-11-06 10:33:00,64.6,54.0,28.77,West,280,3.0,-999.0,68,-99.99,,,0.00,weatherlink.com 1.10,2013-11-06 15:33:00,
2013-11-06 10:48:00,66.1,53.0,28.75,West,273,3.0,-999.0,64,-99.99,,,0.00,weatherlink.com 1.10,2013-11-06 15:48:00,
2013-11-06 11:03:00,67.1,54.0,28.74,West,270,4.0,-999.0,64,-99.99,,,0.00,weatherlink.com 1.10,2013-11-06 16:03:00,
2013-11-06 11:18:00,68.1,54.0,28.75,West,279,0.0,-999.0,62,-99.99,,,0.00,weatherlink.com 1.10,2013-11-06 16:18:00,
2013-11-06 11:33:00,69.3,56.0,28.76,SW,229,1.0,-999.0,62,-99.99,,,0.00,weatherlink.com 1.10,2013-11-06 16:33:00,
2013-11-06 11:48:00,70.2,56.0,28.75,NW,314,4.0,-999.0,61,-99.99,,,0.00,weatherlink.com 1.10,2013-11-06 16:48:00,
2013-11-06 12:03:00,70.9,56.0,28.74,WSW,243,2.0,-999.0,59,-99.99,,,0.00,weatherlink.com 1.10,2013-11-06 17:03:00,
2013-11-06 12:18:00,70.9,56.0,28.74,WNW,295,3.0,-999.0,60,-99.99,,,0.00,weatherlink.com 1.10,2013-11-06 17:18:00,
2013-11-06 12:33:00,71.5,56.0,28.76,NW,313,6.0,-999.0,59,-99.99,,,0.00,weatherlink.com 1.10,2013-11-06 17:33:00,
2013-11-06 12:48:00,71.7,56.0,28.76,WSW,253,0.0,-999.0,58,-99.99,,,0.00,weatherlink.com 1.10,2013-11-06 17:48:00,
2013-11-06 13:03:00,72.4,56.0,28.77,WSW,246,0.0,-999.0,56,-99.99,,,0.00,weatherlink.com 1.10,2013-11-06 18:03:00,
2013-11-06 13:18:00,72.8,56.0,28.80,West,280,1.0,-999.0,56,-99.99,,,0.00,weatherlink.com 1.10,2013-11-06 18:18:00,
2013-11-06 13:33:00,73.3,57.0,28.80,West,264,0.0,-999.0,56,-99.99,,,0.00,weatherlink.com 1.10,2013-11-06 18:33:00,
2013-11-06 13:48:00,73.3,56.0,28.81,WSW,252,3.0,-999.0,55,-99.99,,,0.00,weatherlink.com 1.10,2013-11-06 18:48:00,
2013-11-06 14:03:00,74.3,56.0,28.81,WSW,253,2.0,-999.0,53,-99.99,,,0.00,weatherlink.com 1.10,2013-11-06 19:03:00,
2013-11-06 14:18:00,74.3,56.0,28.81,West,263,6.0,-999.0,54,-99.99,,,0.00,weatherlink.com 1.10,2013-11-06 19:18:00,
2013-11-06 14:34:00,73.3,56.0,28.83,SW,214,1.0,-999.0,55,-99.99,,,0.00,weatherlink.com 1.10,2013-11-06 19:34:00,
2013-11-06 14:49:00,73.6,56.0,28.83,West,267,1.0,-999.0,55,-99.99,,,0.00,weatherlink.com 1.10,2013-11-06 19:49:00,
2013-11-06 15:04:00,72.6,56.0,28.83,West,269,3.0,-999.0,56,-99.99,,,0.00,weatherlink.com 1.10,2013-11-06 20:04:00,
2013-11-06 15:19:00,71.8,56.0,28.83,WNW,282,1.0,-999.0,57,-99.99,,,0.00,weatherlink.com 1.10,2013-11-06 20:19:00,
2013-11-06 15:34:00,71.7,56.0,28.83,West,281,1.0,-999.0,58,-99.99,,,0.00,weatherlink.com 1.10,2013-11-06 20:34:00,
2013-11-06 15:49:00,71.8,56.0,28.83,West,281,0.0,-999.0,58,-99.99,,,0.00,weatherlink.com 1.10,2013-11-06 20:49:00,
2013-11-06 16:04:00,71.3,56.0,28.83,WNW,290,0.0,-999.0,59,-99.99,,,0.00,weatherlink.com 1.10,2013-11-06 21:04:00,
2013-11-06 16:19:00,70.3,56.0,28.83,WNW,290,1.0,-999.0,60,-99.99,,,0.00,weatherlink.com 1.10,2013-11-06 21:19:00,
2013-11-06 16:34:00,70.2,56.0,28.83,WNW,288,0.0,-999.0,61,-99.99,,,0.00,weatherlink.com 1.10,2013-11-06 21:34:00,
2013-11-06 16:49:00,70.1,56.0,28.85,WNW,286,2.0,-999.0,61,-99.99,,,0.00,weatherlink.com 1.10,2013-11-06 21:49:00,
2013-11-06 17:04:00,69.1,55.0,28.83,West,271,0.0,-999.0,61,-99.99,,,0.00,weatherlink.com 1.10,2013-11-06 22:04:00,
2013-11-06 17:19:00,67.9,55.0,28.85,West,271,0.0,-999.0,63,-99.99,,,0.00,weatherlink.com 1.10,2013-11-06 22:19:00,
2013-11-06 17:34:00,66.7,54.0,28.85,West,271,0.0,-999.0,65,-99.99,,,0.00,weatherlink.com 1.10,2013-11-06 22:34:00,
2013-11-06 17:49:00,66.0,54.0,28.85,West,271,0.0,-999.0,66,-99.99,,,0.00,weatherlink.com 1.10,2013-11-06 22:49:00,
2013-11-06 18:04:00,65.6,54.0,28.85,West,271,0.0,-999.0,67,-99.99,,,0.00,weatherlink.com 1.10,2013-11-06 23:04:00,
2013-11-06 18:19:00,65.0,54.0,28.85,West,271,0.0,-999.0,68,-99.99,,,0.00,weatherlink.com 1.10,2013-11-06 23:19:00,
2013-11-06 18:34:00,64.7,54.0,28.84,West,271,0.0,-999.0,69,-99.99,,,0.00,weatherlink.com 1.10,2013-11-06 23:34:00,
2013-11-06 18:49:00,64.5,54.0,28.83,West,276,0.0,-999.0,69,-99.99,,,0.00,weatherlink.com 1.10,2013-11-06 23:49:00,
2013-11-06 19:04:00,64.6,54.0,28.84,West,281,0.0,-999.0,69,-99.99,,,0.00,weatherlink.com 1.10,2013-11-07 00:04:00,
2013-11-06 19:19:00,64.7,54.0,28.83,West,280,0.0,-999.0,68,-99.99,,,0.00,weatherlink.com 1.10,2013-11-07 00:19:00,
2013-11-06 19:34:00,65.3,54.0,28.82,WNW,284,0.0,-999.0,68,-99.99,,,0.00,weatherlink.com 1.10,2013-11-07 00:34:00,
2013-11-06 19:49:00,65.3,54.0,28.83,WNW,292,0.0,-999.0,67,-99.99,,,0.00,weatherlink.com 1.10,2013-11-07 00:49:00,
2013-11-06 20:04:00,65.4,54.0,28.83,ESE,120,0.0,-999.0,67,-99.99,,,0.00,weatherlink.com 1.10,2013-11-07 01:04:00,
2013-11-06 20:19:00,64.9,54.0,28.83,WSW,245,0.0,-999.0,68,-99.99,,,0.00,weatherlink.com 1.10,2013-11-07 01:19:00,
2013-11-06 20:34:00,64.3,54.0,28.81,WSW,245,0.0,-999.0,69,-99.99,,,0.00,weatherlink.com 1.10,2013-11-07 01:34:00,
2013-11-06 20:49:00,63.6,54.0,28.83,WSW,245,0.0,-999.0,70,-99.99,,,0.00,weatherlink.com 1.10,2013-11-07 01:49:00,
2013-11-06 21:04:00,62.6,53.0,28.82,WSW,245,1.0,-999.0,71,-99.99,,,0.00,weatherlink.com 1.10,2013-11-07 02:04:00,
2013-11-06 21:19:00,62.0,53.0,28.83,WSW,245,0.0,-999.0,72,-99.99,,,0.00,weatherlink.com 1.10,2013-11-07 02:19:00,
2013-11-06 21:34:00,62.1,53.0,28.82,WSW,245,0.0,-999.0,72,-99.99,,,0.00,weatherlink.com 1.10,2013-11-07 02:34:00,
2013-11-06 21:49:00,62.2,53.0,28.82,WSW,252,1.0,-999.0,72,-99.99,,,0.00,weatherlink.com 1.10,2013-11-07 02:49:00,
2013-11-06 22:04:00,62.3,53.0,28.83,West,268,0.0,-999.0,72,-99.99,,,0.00,weatherlink.com 1.10,2013-11-07 03:04:00,
2013-11-06 22:19:00,62.3,53.0,28.82,West,268,0.0,-999.0,72,-99.99,,,0.00,weatherlink.com 1.10,2013-11-07 03:19:00,
2013-11-06 22:34:00,62.3,53.0,28.82,West,269,2.0,-999.0,72,-99.99,,,0.00,weatherlink.com 1.10,2013-11-07 03:34:00,
2013-11-06 22:49:00,62.5,53.0,28.82,West,269,1.0,-999.0,72,-99.99,,,0.00,weatherlink.com 1.10,2013-11-07 03:49:00,
2013-11-06 23:04:00,62.6,53.0,28.83,West,268,0.0,-999.0,71,-99.99,,,0.00,weatherlink.com 1.10,2013-11-07 04:04:00,
2013-11-06 23:19:00,62.6,53.0,28.82,West,269,0.0,-999.0,71,-99.99,,,0.00,weatherlink.com 1.10,2013-11-07 04:19:00,
2013-11-06 23:34:00,63.5,54.0,28.82,WSW,254,1.0,-999.0,70,-99.99,,,0.00,weatherlink.com 1.10,2013-11-07 04:34:00,
2013-11-06 23:49:00,64.0,54.0,28.82,West,261,2.0,-999.0,69,-99.99,,,0.00,weatherlink.com 1.10,2013-11-07 04:49:00,